Time,TemperatureF,DewpointF,PressureIn,WindDirection,WindDirectionDegrees,WindSpeedMPH,WindSpeedGustMPH,Humidity,HourlyPrecipIn,Conditions,Clouds,dailyrainin,SolarRadiationWatts/m^2,SoftwareType,DateUTC
2017-09-20 00:02:00,73.7,68.2,29.64,SSE,155,0.0,0.0,83,0.00,BKN,,0.00,0.0,WeatherDisplay:10.37,2017-09-20 05:02:00,
2017-09-20 00:07:00,73.6,68.1,29.64,SSE,157,0.0,0.0,83,0.00,BKN,,0.00,0.0,WeatherDisplay:10.37,2017-09-20 05:07:00,
2017-09-20 00:12:00,73.6,68.5,29.64,SSE,155,0.0,0.0,84,0.00,BKN,,0.00,0.0,WeatherDisplay:10.37,2017-09-20 05:12:00,
2017-09-20 00:17:00,73.6,68.5,29.64,SSE,155,0.0,0.0,84,0.00,BKN,,0.00,0.0,WeatherDisplay:10.37,2017-09-20 05:17:00,
2017-09-20 00:22:00,73.5,68.4,29.64,SSE,156,0.0,0.0,84,0.00,BKN,,0.00,0.0,WeatherDisplay:10.37,2017-09-20 05:22:00,
2017-09-20 00:27:00,73.5,68.4,29.63,SSE,156,0.0,0.0,84,0.00,BKN,,0.00,0.0,WeatherDisplay:10.37,2017-09-20 05:27:00,
2017-09-20 00:32:00,73.4,68.3,29.63,SSE,155,0.0,0.0,84,0.00,OVC,,0.00,0.0,WeatherDisplay:10.37,2017-09-20 05:32:00,
2017-09-20 00:37:00,73.4,68.3,29.63,SSE,157,0.0,0.0,84,0.00,OVC,,0.00,0.0,WeatherDisplay:10.37,2017-09-20 05:37:00,
2017-09-20 00:42:00,73.3,68.2,29.63,SSE,166,0.0,0.0,84,0.00,OVC,,0.00,0.0,WeatherDisplay:10.37,2017-09-20 05:42:00,
2017-09-20 00:47:00,73.3,68.5,29.63,SSE,166,0.0,0.0,85,0.00,BKN,,0.00,0.0,WeatherDisplay:10.37,2017-09-20 05:47:00,
2017-09-20 00:52:00,73.4,68.6,29.63,SSE,167,0.0,0.0,85,0.00,BKN,,0.00,0.0,WeatherDisplay:10.37,2017-09-20 05:52:00,
2017-09-20 00:57:00,73.4,68.3,29.62,SSW,192,0.2,2.3,84,0.00,BKN,,0.00,0.0,WeatherDisplay:10.37,2017-09-20 05:57:00,
2017-09-20 01:02:00,73.4,68.3,29.62,SSE,165,0.0,0.0,84,0.00,SCT,,0.00,0.0,WeatherDisplay:10.37,2017-09-20 06:02:00,
2017-09-20 01:07:00,73.5,68.4,29.62,South,182,0.0,0.0,84,0.00,SCT,,0.00,0.0,WeatherDisplay:10.37,2017-09-20 06:07:00,
2017-09-20 01:12:00,73.5,68.4,29.63,South,179,0.0,0.0,84,0.00,SCT,,0.00,0.0,WeatherDisplay:10.37,2017-09-20 06:12:00,
2017-09-20 01:17:00,73.6,68.1,29.63,South,182,0.0,0.0,83,0.00,SCT,,0.00,0.0,WeatherDisplay:10.37,2017-09-20 06:17:00,
2017-09-20 01:22:00,73.8,68.3,29.63,South,181,0.0,0.0,83,0.00,SCT,,0.00,0.0,WeatherDisplay:10.37,2017-09-20 06:22:00,
2017-09-20 01:27:00,73.8,68.3,29.63,SSE,161,0.0,0.0,83,0.00,SCT,,0.00,0.0,WeatherDisplay:10.37,2017-09-20 06:27:00,
2017-09-20 01:32:00,73.9,68.4,29.63,South,170,0.0,0.0,83,0.00,SCT,,0.00,0.0,WeatherDisplay:10.37,2017-09-20 06:32:00,
2017-09-20 01:37:00,73.9,68.4,29.63,South,171,0.0,0.0,83,0.00,SCT,,0.00,0.0,WeatherDisplay:10.37,2017-09-20 06:37:00,
2017-09-20 01:42:00,73.8,68.3,29.63,SSE,168,0.0,0.0,83,0.00,SCT,,0.00,0.0,WeatherDisplay:10.37,2017-09-20 06:42:00,
2017-09-20 01:47:00,73.8,68.3,29.63,SSE,165,0.0,0.0,83,0.00,FEW,,0.00,0.0,WeatherDisplay:10.37,2017-09-20 06:47:00,
2017-09-20 01:52:00,73.9,68.4,29.63,South,171,0.0,0.0,83,0.00,FEW,,0.00,0.0,WeatherDisplay:10.37,2017-09-20 06:52:00,
2017-09-20 01:57:00,73.9,68.4,29.63,SSE,160,0.0,0.0,83,0.00,FEW,,0.00,0.0,WeatherDisplay:10.37,2017-09-20 06:57:00,
2017-09-20 02:02:00,73.8,68.3,29.63,South,173,0.0,0.0,83,0.00,CLR,,0.00,0.0,WeatherDisplay:10.37,2017-09-20 07:02:00,
2017-09-20 02:07:00,73.7,68.2,29.62,South,173,0.0,0.0,83,0.00,CLR,,0.00,0.0,WeatherDisplay:10.37,2017-09-20 07:07:00,
2017-09-20 02:12:00,73.7,68.2,29.63,South,173,0.0,0.0,83,0.00,CLR,,0.00,0.0,WeatherDisplay:10.37,2017-09-20 07:12:00,
2017-09-20 02:17:00,73.7,68.2,29.63,South,175,0.0,0.0,83,0.00,CLR,,0.00,0.0,WeatherDisplay:10.37,2017-09-20 07:17:00,
2017-09-20 02:22:00,73.7,68.2,29.63,South,175,0.0,0.0,83,0.00,CLR,,0.00,0.0,WeatherDisplay:10.37,2017-09-20 07:22:00,
2017-09-20 02:27:00,73.7,68.2,29.63,South,174,0.0,0.0,83,0.00,CLR,,0.00,0.0,WeatherDisplay:10.37,2017-09-20 07:27:00,
2017-09-20 02:33:00,73.7,68.2,29.63,South,175,0.0,0.0,83,0.00,CLR,,0.00,0.0,WeatherDisplay:10.37,2017-09-20 07:33:00,
2017-09-20 02:37:00,73.7,68.2,29.62,South,175,0.0,0.0,83,0.00,CLR,,0.00,0.0,WeatherDisplay:10.37,2017-09-20 07:37:00,
2017-09-20 02:42:00,73.7,68.2,29.63,South,175,0.0,0.0,83,0.00,CLR,,0.00,0.0,WeatherDisplay:10.37,2017-09-20 07:42:00,
2017-09-20 02:47:00,73.7,68.2,29.62,South,175,0.0,0.0,83,0.00,CLR,,0.00,0.0,WeatherDisplay:10.37,2017-09-20 07:47:00,
2017-09-20 02:52:00,73.7,68.2,29.62,South,175,0.0,0.0,83,0.00,CLR,,0.00,0.0,WeatherDisplay:10.37,2017-09-20 07:52:00,
2017-09-20 02:57:00,73.6,68.5,29.62,South,175,0.0,0.0,84,0.00,CLR,,0.00,0.0,WeatherDisplay:10.37,2017-09-20 07:57:00,
2017-09-20 03:02:00,73.5,68.4,29.62,South,175,0.0,0.0,84,0.00,CLR,,0.00,0.0,WeatherDisplay:10.37,2017-09-20 08:02:00,
2017-09-20 03:07:00,73.5,68.4,29.62,South,169,0.0,0.0,84,0.00,CLR,,0.00,0.0,WeatherDisplay:10.37,2017-09-20 08:07:00,
2017-09-20 03:13:00,73.6,68.5,29.62,South,169,0.0,0.0,84,0.00,CLR,,0.00,0.0,WeatherDisplay:10.37,2017-09-20 08:13:00,
2017-09-20 03:18:00,73.7,68.6,29.62,South,169,0.0,0.0,84,0.00,CLR,,0.00,0.0,WeatherDisplay:10.37,2017-09-20 08:18:00,
2017-09-20 03:23:00,73.7,68.6,29.62,South,169,0.0,0.0,84,0.00,CLR,,0.00,0.0,WeatherDisplay:10.37,2017-09-20 08:23:00,
2017-09-20 03:28:00,74.0,68.9,29.62,SSE,148,0.0,0.0,84,0.00,CLR,,0.00,0.0,WeatherDisplay:10.37,2017-09-20 08:28:00,
2017-09-20 03:33:00,74.2,68.7,29.62,SSE,148,0.0,0.0,83,0.00,CLR,,0.00,0.0,WeatherDisplay:10.37,2017-09-20 08:33:00,
2017-09-20 03:38:00,74.2,68.7,29.62,SSE,148,0.0,0.0,83,0.00,CLR,,0.00,0.0,WeatherDisplay:10.37,2017-09-20 08:38:00,
2017-09-20 03:43:00,74.2,68.7,29.61,SSE,149,0.0,0.0,83,0.00,CLR,,0.00,0.0,WeatherDisplay:10.37,2017-09-20 08:43:00,
2017-09-20 03:48:00,74.3,68.8,29.62,SSE,149,0.0,0.0,83,0.00,CLR,,0.00,0.0,WeatherDisplay:10.37,2017-09-20 08:48:00,
2017-09-20 03:53:00,74.4,68.9,29.61,SSE,150,0.0,0.0,83,0.00,CLR,,0.00,0.0,WeatherDisplay:10.37,2017-09-20 08:53:00,
2017-09-20 03:58:00,74.5,69.0,29.61,South,180,0.0,0.0,83,0.00,CLR,,0.00,0.0,WeatherDisplay:10.37,2017-09-20 08:58:00,
2017-09-20 04:03:00,74.7,69.2,29.62,SSW,194,0.0,0.0,83,0.00,CLR,,0.00,0.0,WeatherDisplay:10.37,2017-09-20 09:03:00,
2017-09-20 04:08:00,74.7,69.2,29.62,SSW,194,0.0,0.0,83,0.00,CLR,,0.00,0.0,WeatherDisplay:10.37,2017-09-20 09:08:00,
2017-09-20 04:13:00,74.7,69.2,29.62,SSW,194,0.0,0.0,83,0.00,CLR,,0.00,0.0,WeatherDisplay:10.37,2017-09-20 09:13:00,
2017-09-20 04:18:00,74.8,69.3,29.62,SSW,205,0.0,0.0,83,0.00,CLR,,0.00,0.0,WeatherDisplay:10.37,2017-09-20 09:18:00,
2017-09-20 04:23:00,74.7,69.2,29.62,SSW,203,0.0,0.0,83,0.00,CLR,,0.00,0.0,WeatherDisplay:10.37,2017-09-20 09:23:00,
2017-09-20 04:28:00,74.8,69.3,29.63,SSW,202,0.0,0.0,83,0.00,CLR,,0.00,0.0,WeatherDisplay:10.37,2017-09-20 09:28:00,
2017-09-20 04:33:00,74.7,69.2,29.63,SSW,203,0.0,0.0,83,0.00,CLR,,0.00,0.0,WeatherDisplay:10.37,2017-09-20 09:33:00,
2017-09-20 04:38:00,74.6,69.1,29.63,SSW,203,0.0,0.0,83,0.00,CLR,,0.00,0.0,WeatherDisplay:10.37,2017-09-20 09:38:00,
2017-09-20 04:43:00,74.5,69.0,29.63,SSW,204,0.0,0.0,83,0.00,CLR,,0.00,0.0,WeatherDisplay:10.37,2017-09-20 09:43:00,
2017-09-20 04:48:00,74.4,68.9,29.63,South,176,0.0,0.0,83,0.00,CLR,,0.00,0.0,WeatherDisplay:10.37,2017-09-20 09:48:00,
2017-09-20 04:53:00,74.3,69.1,29.63,SSE,167,0.0,0.0,84,0.00,CLR,,0.00,0.0,WeatherDisplay:10.37,2017-09-20 09:53:00,
2017-09-20 04:58:00,74.1,69.0,29.63,SSE,168,0.0,0.0,84,0.00,CLR,,0.00,0.0,WeatherDisplay:10.37,2017-09-20 09:58:00,
2017-09-20 05:03:00,74.0,68.9,29.63,SSE,168,0.0,0.0,84,0.00,CLR,,0.00,0.0,WeatherDisplay:10.37,2017-09-20 10:03:00,
2017-09-20 05:08:00,73.9,68.8,29.63,SSE,168,0.0,0.0,84,0.00,CLR,,0.00,0.0,WeatherDisplay:10.37,2017-09-20 10:08:00,
2017-09-20 05:13:00,73.8,69.0,29.63,SSW,197,0.0,0.0,85,0.00,CLR,,0.00,0.0,WeatherDisplay:10.37,2017-09-20 10:13:00,
2017-09-20 05:18:00,73.7,68.9,29.63,SSW,196,0.0,0.0,85,0.00,CLR,,0.00,0.0,WeatherDisplay:10.37,2017-09-20 10:18:00,
2017-09-20 05:23:00,73.7,68.9,29.62,South,175,0.0,0.0,85,0.00,CLR,,0.00,0.0,WeatherDisplay:10.37,2017-09-20 10:23:00,
2017-09-20 05:28:00,73.5,68.7,29.62,South,173,0.0,0.0,85,0.00,CLR,,0.00,0.0,WeatherDisplay:10.37,2017-09-20 10:28:00,
2017-09-20 05:33:00,73.4,68.6,29.62,South,173,0.0,0.0,85,0.00,CLR,,0.00,0.0,WeatherDisplay:10.37,2017-09-20 10:33:00,
2017-09-20 05:38:00,73.3,68.9,29.63,South,173,0.0,0.0,86,0.00,CLR,,0.00,0.0,WeatherDisplay:10.37,2017-09-20 10:38:00,
2017-09-20 05:43:00,73.2,68.8,29.62,South,176,0.0,0.0,86,0.00,CLR,,0.00,0.0,WeatherDisplay:10.37,2017-09-20 10:43:00,
2017-09-20 05:48:00,73.1,68.7,29.62,South,176,0.0,0.0,86,0.00,CLR,,0.00,0.0,WeatherDisplay:10.37,2017-09-20 10:48:00,
2017-09-20 05:53:00,73.0,68.6,29.62,South,176,0.0,0.0,86,0.00,CLR,,0.00,0.0,WeatherDisplay:10.37,2017-09-20 10:53:00,
2017-09-20 05:58:00,72.8,68.7,29.62,South,177,0.0,0.0,87,0.00,CLR,,0.00,0.0,WeatherDisplay:10.37,2017-09-20 10:58:00,
2017-09-20 06:03:00,72.8,68.7,29.63,South,174,0.0,0.0,87,0.00,CLR,,0.00,0.0,WeatherDisplay:10.37,2017-09-20 11:03:00,
2017-09-20 06:08:00,72.7,68.6,29.63,SSE,159,0.0,0.0,87,0.00,CLR,,0.00,0.0,WeatherDisplay:10.37,2017-09-20 11:08:00,
2017-09-20 06:13:00,72.6,68.5,29.63,SSE,159,0.0,0.0,87,0.00,CLR,,0.00,0.0,WeatherDisplay:10.37,2017-09-20 11:13:00,
2017-09-20 06:18:00,72.5,68.4,29.63,SSE,159,0.0,0.0,87,0.00,CLR,,0.00,0.0,WeatherDisplay:10.37,2017-09-20 11:18:00,
2017-09-20 06:23:00,72.4,68.6,29.63,SSE,159,0.0,0.0,88,0.00,CLR,,0.00,0.0,WeatherDisplay:10.37,2017-09-20 11:23:00,
2017-09-20 06:28:00,72.3,68.5,29.63,SSE,159,0.0,0.0,88,0.00,CLR,,0.00,0.0,WeatherDisplay:10.37,2017-09-20 11:28:00,
2017-09-20 06:33:00,72.2,68.4,29.63,SSE,159,0.0,0.0,88,0.00,CLR,,0.00,0.0,WeatherDisplay:10.37,2017-09-20 11:33:00,
2017-09-20 06:38:00,72.2,68.4,29.64,SSE,159,0.0,0.0,88,0.00,CLR,,0.00,0.0,WeatherDisplay:10.37,2017-09-20 11:38:00,
2017-09-20 06:43:00,72.2,68.4,29.64,SSE,160,0.0,0.0,88,0.00,CLR,,0.00,0.0,WeatherDisplay:10.37,2017-09-20 11:43:00,
2017-09-20 06:48:00,72.1,68.3,29.64,SSE,162,0.0,0.0,88,0.00,BKN,,0.00,0.0,WeatherDisplay:10.37,2017-09-20 11:48:00,
2017-09-20 06:53:00,72.1,68.3,29.64,SSE,162,0.0,0.0,88,0.00,BKN,,0.00,0.0,WeatherDisplay:10.37,2017-09-20 11:53:00,
2017-09-20 06:58:00,72.1,68.3,29.64,SSE,162,0.0,0.0,88,0.00,BKN,,0.00,0.0,WeatherDisplay:10.37,2017-09-20 11:58:00,
2017-09-20 07:03:00,72.0,68.6,29.64,SSE,162,0.0,0.0,89,0.00,SCT,,0.00,0.0,WeatherDisplay:10.37,2017-09-20 12:03:00,
2017-09-20 07:08:00,72.0,68.6,29.64,SSE,162,0.0,0.0,89,0.00,SCT,,0.00,5.0,WeatherDisplay:10.37,2017-09-20 12:08:00,
2017-09-20 07:10:00,72.0,68.6,29.65,SSE,162,0.0,0.0,89,0.00,SCT,,0.00,7.0,WeatherDisplay:10.37,2017-09-20 12:10:00,
2017-09-20 07:15:00,72.0,68.6,29.65,SSE,163,0.0,0.0,89,0.00,SCT,,0.00,11.0,WeatherDisplay:10.37,2017-09-20 12:15:00,
2017-09-20 07:20:00,71.9,68.5,29.65,SSE,163,0.0,0.0,89,0.00,SCT,,0.00,12.0,WeatherDisplay:10.37,2017-09-20 12:20:00,
2017-09-20 07:25:00,72.0,68.6,29.65,SSE,164,0.0,0.0,89,0.00,SCT,,0.00,19.0,WeatherDisplay:10.37,2017-09-20 12:25:00,
2017-09-20 07:30:00,71.9,68.5,29.65,SSE,163,0.0,0.0,89,0.00,SCT,,0.00,23.0,WeatherDisplay:10.37,2017-09-20 12:30:00,
2017-09-20 07:35:00,71.9,68.5,29.66,SSE,164,0.0,0.0,89,0.00,BKN,,0.00,26.0,WeatherDisplay:10.37,2017-09-20 12:35:00,
2017-09-20 07:40:00,72.0,68.6,29.66,SSE,164,0.0,0.0,89,0.00,BKN,,0.00,30.0,WeatherDisplay:10.37,2017-09-20 12:40:00,
2017-09-20 07:46:00,72.0,68.6,29.66,SSE,163,0.0,0.0,89,0.00,OVC,,0.00,32.0,WeatherDisplay:10.37,2017-09-20 12:46:00,
2017-09-20 07:50:00,72.1,68.7,29.66,SSE,164,0.0,0.0,89,0.00,OVC,,0.00,32.0,WeatherDisplay:10.37,2017-09-20 12:50:00,
2017-09-20 07:55:00,72.1,68.7,29.67,SSE,164,0.0,0.0,89,0.00,OVC,,0.00,40.0,WeatherDisplay:10.37,2017-09-20 12:55:00,
2017-09-20 08:00:00,72.2,68.8,29.67,SSE,164,0.0,0.0,89,0.00,OVC,,0.00,51.0,WeatherDisplay:10.37,2017-09-20 13:00:00,
2017-09-20 08:06:00,72.3,68.9,29.67,SSE,164,0.0,0.0,89,0.00,OVC,,0.00,74.0,WeatherDisplay:10.37,2017-09-20 13:06:00,
2017-09-20 08:11:00,72.5,69.1,29.67,SSE,164,0.0,0.0,89,0.00,OVC,,0.00,109.0,WeatherDisplay:10.37,2017-09-20 13:11:00,
2017-09-20 08:16:00,72.8,69.4,29.67,SSE,164,0.0,0.0,89,0.00,OVC,,0.00,104.0,WeatherDisplay:10.37,2017-09-20 13:16:00,
2017-09-20 08:21:00,72.9,69.1,29.68,SSE,164,0.0,0.0,88,0.00,OVC,,0.00,58.0,WeatherDisplay:10.37,2017-09-20 13:21:00,
2017-09-20 08:26:00,73.0,69.2,29.68,SSE,164,0.0,0.0,88,0.00,OVC,,0.00,84.0,WeatherDisplay:10.37,2017-09-20 13:26:00,
2017-09-20 08:31:00,73.2,69.4,29.68,SSE,163,0.0,0.0,88,0.00,BKN,,0.00,72.0,WeatherDisplay:10.37,2017-09-20 13:31:00,
2017-09-20 08:36:00,73.3,69.5,29.68,SSE,164,0.0,0.0,88,0.00,BKN,,0.00,77.0,WeatherDisplay:10.37,2017-09-20 13:36:00,
2017-09-20 08:41:00,73.4,69.6,29.69,SSE,163,0.0,0.0,88,0.00,BKN,,0.00,79.0,WeatherDisplay:10.37,2017-09-20 13:41:00,
2017-09-20 08:46:00,73.4,69.6,29.68,SSE,163,0.0,0.0,88,0.00,BKN,,0.00,67.0,WeatherDisplay:10.37,2017-09-20 13:46:00,
2017-09-20 08:51:00,73.5,69.4,29.68,SSE,164,0.0,0.0,87,0.00,BKN,,0.00,218.0,WeatherDisplay:10.37,2017-09-20 13:51:00,
2017-09-20 08:56:00,73.7,69.6,29.68,SSE,165,0.0,0.0,87,0.00,BKN,,0.00,98.0,WeatherDisplay:10.37,2017-09-20 13:56:00,
2017-09-20 09:01:00,73.9,69.8,29.68,SSE,165,0.0,0.0,87,0.00,CLR,,0.00,95.0,WeatherDisplay:10.37,2017-09-20 14:01:00,
2017-09-20 09:06:00,74.1,70.0,29.69,South,171,0.0,0.0,87,0.00,CLR,,0.00,234.0,WeatherDisplay:10.37,2017-09-20 14:06:00,
2017-09-20 09:11:00,74.3,69.8,29.68,South,170,0.0,0.0,86,0.00,CLR,,0.00,97.0,WeatherDisplay:10.37,2017-09-20 14:11:00,
2017-09-20 09:16:00,74.5,70.0,29.68,South,171,0.0,0.0,86,0.00,CLR,,0.00,141.0,WeatherDisplay:10.37,2017-09-20 14:16:00,
2017-09-20 09:21:00,74.7,70.2,29.69,WNW,294,0.0,0.0,86,0.00,CLR,,0.00,125.0,WeatherDisplay:10.37,2017-09-20 14:21:00,
2017-09-20 09:26:00,74.9,70.4,29.69,WNW,290,0.0,0.0,86,0.00,CLR,,0.00,339.0,WeatherDisplay:10.37,2017-09-20 14:26:00,
2017-09-20 09:31:00,75.3,70.5,29.69,WNW,285,0.0,0.0,85,0.00,BKN,,0.00,220.0,WeatherDisplay:10.37,2017-09-20 14:31:00,
2017-09-20 09:36:00,75.6,70.8,29.69,West,262,0.0,0.0,85,0.00,BKN,,0.00,209.0,WeatherDisplay:10.37,2017-09-20 14:36:00,
2017-09-20 09:41:00,75.8,70.6,29.69,West,262,0.0,0.0,84,0.00,BKN,,0.00,165.0,WeatherDisplay:10.37,2017-09-20 14:41:00,
2017-09-20 09:46:00,76.1,70.9,29.70,West,262,0.0,0.0,84,0.00,SCT,,0.00,121.0,WeatherDisplay:10.37,2017-09-20 14:46:00,
2017-09-20 09:51:00,76.2,71.0,29.70,WSW,252,0.0,0.0,84,0.00,SCT,,0.00,130.0,WeatherDisplay:10.37,2017-09-20 14:51:00,
2017-09-20 09:56:00,76.4,71.2,29.70,WSW,252,0.0,0.0,84,0.00,SCT,,0.00,146.0,WeatherDisplay:10.37,2017-09-20 14:56:00,
2017-09-20 10:01:00,76.5,71.3,29.70,WSW,244,0.0,0.0,84,0.00,FEW,,0.00,141.0,WeatherDisplay:10.37,2017-09-20 15:01:00,
2017-09-20 10:06:00,76.6,71.4,29.70,WSW,244,0.0,0.0,84,0.00,FEW,,0.00,149.0,WeatherDisplay:10.37,2017-09-20 15:06:00,
2017-09-20 10:11:00,76.7,71.1,29.70,SW,220,0.1,1.2,83,0.00,FEW,,0.00,121.0,WeatherDisplay:10.37,2017-09-20 15:11:00,
2017-09-20 10:16:00,76.9,71.3,29.70,SW,221,0.0,0.0,83,0.00,FEW,,0.00,155.0,WeatherDisplay:10.37,2017-09-20 15:16:00,
2017-09-20 10:21:00,77.2,71.6,29.70,SW,220,0.0,1.2,83,0.00,FEW,,0.00,329.0,WeatherDisplay:10.37,2017-09-20 15:21:00,
2017-09-20 10:26:00,77.7,72.1,29.70,SW,220,0.0,0.0,83,0.00,FEW,,0.00,185.0,WeatherDisplay:10.37,2017-09-20 15:26:00,
2017-09-20 10:31:00,78.0,71.7,29.70,SW,223,0.0,1.2,81,0.00,FEW,,0.00,190.0,WeatherDisplay:10.37,2017-09-20 15:31:00,
2017-09-20 10:36:00,78.2,71.9,29.70,SSW,209,0.8,1.0,81,0.00,FEW,,0.00,190.0,WeatherDisplay:10.37,2017-09-20 15:36:00,
2017-09-20 10:41:00,78.4,71.7,29.70,SW,221,0.0,0.0,80,0.00,FEW,,0.00,142.0,WeatherDisplay:10.37,2017-09-20 15:41:00,
2017-09-20 10:46:00,78.6,71.9,29.70,SSE,159,0.4,1.2,80,0.00,BKN,,0.00,176.0,WeatherDisplay:10.37,2017-09-20 15:46:00,
2017-09-20 10:51:00,78.8,71.7,29.70,SSW,198,0.4,1.2,79,0.00,BKN,,0.00,213.0,WeatherDisplay:10.37,2017-09-20 15:51:00,
2017-09-20 11:01:00,79.1,72.4,29.70,West,277,0.1,0.0,80,0.00,BKN,,0.00,174.0,WeatherDisplay:10.37,2017-09-20 16:01:00,
2017-09-20 11:06:00,79.3,72.2,29.70,SSW,192,0.0,0.0,79,0.00,BKN,,0.00,144.0,WeatherDisplay:10.37,2017-09-20 16:06:00,
2017-09-20 11:11:00,79.7,72.6,29.70,West,281,0.1,3.5,79,0.00,BKN,,0.00,188.0,WeatherDisplay:10.37,2017-09-20 16:11:00,
2017-09-20 11:16:00,80.1,72.6,29.70,WSW,250,0.0,0.0,78,0.00,BKN,,0.00,264.0,WeatherDisplay:10.37,2017-09-20 16:16:00,
2017-09-20 11:21:00,80.7,73.2,29.70,WSW,258,0.6,4.0,78,0.00,BKN,,0.00,251.0,WeatherDisplay:10.37,2017-09-20 16:21:00,
2017-09-20 11:26:00,81.0,72.7,29.70,WNW,296,1.4,3.5,76,0.00,BKN,,0.00,163.0,WeatherDisplay:10.37,2017-09-20 16:26:00,
2017-09-20 11:31:00,81.0,72.7,29.70,SW,236,0.0,3.5,76,0.00,SCT,,0.00,171.0,WeatherDisplay:10.37,2017-09-20 16:31:00,
2017-09-20 11:36:00,80.9,72.6,29.70,WSW,253,0.9,1.2,76,0.00,SCT,,0.00,255.0,WeatherDisplay:10.37,2017-09-20 16:36:00,
2017-09-20 11:41:00,80.8,72.9,29.70,SSW,206,1.6,1.6,77,0.00,SCT,,0.00,176.0,WeatherDisplay:10.37,2017-09-20 16:41:00,
2017-09-20 11:46:00,80.9,72.2,29.70,SSW,206,0.0,1.2,75,0.00,SCT,,0.00,153.0,WeatherDisplay:10.37,2017-09-20 16:46:00,
2017-09-20 11:51:00,81.1,72.8,29.70,SSW,203,1.0,4.6,76,0.00,SCT,,0.00,160.0,WeatherDisplay:10.37,2017-09-20 16:51:00,
2017-09-20 11:56:00,81.1,72.4,29.70,SSW,204,0.0,0.0,75,0.00,SCT,,0.00,84.0,WeatherDisplay:10.37,2017-09-20 16:56:00,
2017-09-20 12:01:00,81.0,72.3,29.70,WSW,244,0.2,2.3,75,0.00,FEW,,0.00,109.0,WeatherDisplay:10.37,2017-09-20 17:01:00,
2017-09-20 12:06:00,81.2,72.5,29.70,SW,218,0.0,2.3,75,0.00,FEW,,0.00,113.0,WeatherDisplay:10.37,2017-09-20 17:06:00,
2017-09-20 12:11:00,81.5,72.8,29.70,SW,217,1.3,0.0,75,0.00,FEW,,0.00,260.0,WeatherDisplay:10.37,2017-09-20 17:11:00,
2017-09-20 12:16:00,81.9,73.2,29.70,WNW,301,1.6,3.5,75,0.00,FEW,,0.00,146.0,WeatherDisplay:10.37,2017-09-20 17:16:00,
2017-09-20 12:21:00,82.2,72.7,29.70,West,267,1.2,1.2,73,0.00,FEW,,0.00,128.0,WeatherDisplay:10.37,2017-09-20 17:21:00,
2017-09-20 12:26:00,82.4,72.0,29.70,West,281,0.0,0.0,71,0.00,FEW,,0.00,193.0,WeatherDisplay:10.37,2017-09-20 17:26:00,
2017-09-20 12:27:00,82.4,72.0,29.70,West,281,0.1,0.0,71,0.00,FEW,,0.00,193.0,WeatherDisplay:10.37,2017-09-20 17:27:00,
2017-09-20 12:32:00,82.5,72.1,29.71,West,279,0.0,1.0,71,0.00,SCT,,0.00,127.0,WeatherDisplay:10.37,2017-09-20 17:32:00,
2017-09-20 12:37:00,82.6,71.8,29.71,WNW,298,0.0,1.2,70,0.00,SCT,,0.00,200.0,WeatherDisplay:10.37,2017-09-20 17:37:00,
2017-09-20 12:42:00,82.8,72.4,29.71,WNW,296,0.0,0.0,71,0.00,SCT,,0.00,295.0,WeatherDisplay:10.37,2017-09-20 17:42:00,
2017-09-20 12:47:00,83.3,73.3,29.71,NW,321,2.2,4.0,72,0.00,SCT,,0.00,309.0,WeatherDisplay:10.37,2017-09-20 17:47:00,
2017-09-20 12:52:00,83.6,73.2,29.71,West,278,3.3,8.1,71,0.00,SCT,,0.00,243.0,WeatherDisplay:10.37,2017-09-20 17:52:00,
2017-09-20 12:57:00,83.6,72.8,29.71,WNW,301,0.1,0.0,70,0.00,SCT,,0.00,214.0,WeatherDisplay:10.37,2017-09-20 17:57:00,
2017-09-20 13:02:00,83.5,73.1,29.71,WNW,294,1.8,4.0,71,0.00,BKN,,0.00,197.0,WeatherDisplay:10.37,2017-09-20 18:02:00,
2017-09-20 13:07:00,83.0,71.8,29.72,NW,318,2.5,4.6,69,0.00,BKN,,0.00,244.0,WeatherDisplay:10.37,2017-09-20 18:07:00,
2017-09-20 13:12:00,82.9,71.7,29.72,WNW,288,3.4,6.9,69,0.00,BKN,,0.00,257.0,WeatherDisplay:10.37,2017-09-20 18:12:00,
2017-09-20 13:17:00,83.3,71.6,29.72,West,273,2.5,5.0,68,0.00,BKN,,0.00,719.0,WeatherDisplay:10.37,2017-09-20 18:17:00,
2017-09-20 13:22:00,84.0,72.3,29.72,NW,325,2.6,3.5,68,0.00,BKN,,0.00,589.0,WeatherDisplay:10.37,2017-09-20 18:22:00,
2017-09-20 13:27:00,84.5,71.9,29.72,NW,307,1.9,5.8,66,0.00,BKN,,0.00,606.0,WeatherDisplay:10.37,2017-09-20 18:27:00,
2017-09-20 13:32:00,84.8,71.7,29.72,WNW,292,3.4,5.8,65,0.00,FEW,,0.00,455.0,WeatherDisplay:10.37,2017-09-20 18:32:00,
2017-09-20 13:37:00,84.5,71.0,29.72,NW,311,0.9,3.5,64,0.00,FEW,,0.00,693.0,WeatherDisplay:10.37,2017-09-20 18:37:00,
2017-09-20 13:42:00,84.6,71.5,29.72,NNW,331,2.9,5.8,65,0.00,FEW,,0.00,701.0,WeatherDisplay:10.37,2017-09-20 18:42:00,
2017-09-20 13:47:00,85.0,71.9,29.72,NNW,336,1.1,3.5,65,0.00,CLR,,0.00,677.0,WeatherDisplay:10.37,2017-09-20 18:47:00,
2017-09-20 13:52:00,85.3,70.8,29.72,West,278,1.8,4.6,62,0.00,CLR,,0.00,686.0,WeatherDisplay:10.37,2017-09-20 18:52:00,
2017-09-20 13:57:00,85.2,70.7,29.72,NW,317,4.5,6.9,62,0.00,CLR,,0.00,494.0,WeatherDisplay:10.37,2017-09-20 18:57:00,
2017-09-20 14:02:00,85.3,71.3,29.72,West,272,3.2,4.6,63,0.00,CLR,,0.00,327.0,WeatherDisplay:10.37,2017-09-20 19:02:00,
2017-09-20 14:07:00,85.0,70.5,29.72,NW,313,1.6,2.3,62,0.00,CLR,,0.00,248.0,WeatherDisplay:10.37,2017-09-20 19:07:00,
2017-09-20 14:12:00,84.7,70.2,29.72,NW,311,0.0,0.0,62,0.00,CLR,,0.00,387.0,WeatherDisplay:10.37,2017-09-20 19:12:00,
2017-09-20 14:17:00,84.9,71.8,29.72,NW,325,1.7,4.0,65,0.00,CLR,,0.00,773.0,WeatherDisplay:10.37,2017-09-20 19:17:00,
2017-09-20 14:22:00,85.3,71.3,29.72,NW,308,2.6,4.6,63,0.00,CLR,,0.00,313.0,WeatherDisplay:10.37,2017-09-20 19:22:00,
2017-09-20 14:27:00,85.4,69.9,29.72,ENE,61,2.2,5.0,60,0.00,CLR,,0.00,281.0,WeatherDisplay:10.37,2017-09-20 19:27:00,
2017-09-20 14:32:00,85.2,68.8,29.72,NW,314,2.0,6.9,58,0.00,CLR,,0.00,355.0,WeatherDisplay:10.37,2017-09-20 19:32:00,
2017-09-20 14:37:00,85.0,68.6,29.73,NW,326,3.2,6.9,58,0.00,CLR,,0.00,172.0,WeatherDisplay:10.37,2017-09-20 19:37:00,
2017-09-20 14:42:00,84.5,68.6,29.73,NNW,328,2.4,4.6,59,0.00,CLR,,0.00,195.0,WeatherDisplay:10.37,2017-09-20 19:42:00,
2017-09-20 14:47:00,84.2,68.3,29.73,North,360,1.5,3.5,59,0.00,CLR,,0.00,476.0,WeatherDisplay:10.37,2017-09-20 19:47:00,
2017-09-20 14:52:00,84.5,68.6,29.73,WNW,290,1.6,6.9,59,0.00,CLR,,0.00,311.0,WeatherDisplay:10.37,2017-09-20 19:52:00,
2017-09-20 14:57:00,84.5,67.1,29.73,North,355,5.0,8.1,56,0.00,CLR,,0.00,272.0,WeatherDisplay:10.37,2017-09-20 19:57:00,
2017-09-20 15:02:00,84.2,67.3,29.73,NW,324,3.3,10.4,57,0.00,CLR,,0.00,251.0,WeatherDisplay:10.37,2017-09-20 20:02:00,
2017-09-20 15:07:00,84.1,67.2,29.73,NW,315,4.5,6.9,57,0.00,CLR,,0.00,218.0,WeatherDisplay:10.37,2017-09-20 20:07:00,
2017-09-20 15:12:00,83.9,67.0,29.73,NNW,327,3.0,3.5,57,0.00,CLR,,0.00,283.0,WeatherDisplay:10.37,2017-09-20 20:12:00,
2017-09-20 15:17:00,84.0,67.1,29.73,NW,309,2.8,3.5,57,0.00,CLR,,0.00,294.0,WeatherDisplay:10.37,2017-09-20 20:17:00,
2017-09-20 15:22:00,84.1,66.7,29.73,NW,312,0.7,3.5,56,0.00,CLR,,0.00,239.0,WeatherDisplay:10.37,2017-09-20 20:22:00,
2017-09-20 15:27:00,83.9,66.5,29.74,WNW,302,2.1,5.0,56,0.00,CLR,,0.00,202.0,WeatherDisplay:10.37,2017-09-20 20:27:00,
2017-09-20 15:32:00,83.9,67.0,29.74,NNW,332,1.5,4.6,57,0.00,CLR,,0.00,656.0,WeatherDisplay:10.37,2017-09-20 20:32:00,
2017-09-20 15:37:00,84.2,66.8,29.74,NW,312,1.2,3.5,56,0.00,CLR,,0.00,239.0,WeatherDisplay:10.37,2017-09-20 20:37:00,
2017-09-20 15:42:00,84.1,66.2,29.74,NW,325,1.5,3.5,55,0.00,CLR,,0.00,308.0,WeatherDisplay:10.37,2017-09-20 20:42:00,
2017-09-20 15:47:00,84.1,66.2,29.73,NW,319,0.0,3.5,55,0.00,CLR,,0.00,547.0,WeatherDisplay:10.37,2017-09-20 20:47:00,
2017-09-20 15:52:00,84.4,67.5,29.74,NW,317,2.1,6.9,57,0.00,CLR,,0.00,538.0,WeatherDisplay:10.37,2017-09-20 20:52:00,
2017-09-20 15:57:00,84.9,65.9,29.73,NW,306,0.7,3.5,53,0.00,CLR,,0.00,510.0,WeatherDisplay:10.37,2017-09-20 20:57:00,
2017-09-20 16:02:00,85.4,66.3,29.74,NNW,335,2.5,5.8,53,0.00,CLR,,0.00,494.0,WeatherDisplay:10.37,2017-09-20 21:02:00,
2017-09-20 16:07:00,85.8,66.7,29.74,NNW,346,3.5,6.9,53,0.00,CLR,,0.00,483.0,WeatherDisplay:10.37,2017-09-20 21:07:00,
2017-09-20 16:12:00,85.7,65.5,29.74,NW,317,0.9,5.8,51,0.00,CLR,,0.00,163.0,WeatherDisplay:10.37,2017-09-20 21:12:00,
2017-09-20 16:17:00,84.8,65.2,29.74,NW,321,1.2,6.9,52,0.00,CLR,,0.00,137.0,WeatherDisplay:10.37,2017-09-20 21:17:00,
2017-09-20 16:22:00,84.1,65.1,29.75,North,360,3.0,6.9,53,0.00,CLR,,0.00,84.0,WeatherDisplay:10.37,2017-09-20 21:22:00,
2017-09-20 16:27:00,83.6,65.2,29.74,NNW,331,1.1,3.5,54,0.00,CLR,,0.00,151.0,WeatherDisplay:10.37,2017-09-20 21:27:00,
2017-09-20 16:32:00,83.4,65.5,29.74,NW,316,1.6,4.6,55,0.00,CLR,,0.00,492.0,WeatherDisplay:10.37,2017-09-20 21:32:00,
2017-09-20 16:37:00,83.9,66.5,29.74,NNW,327,2.2,4.6,56,0.00,CLR,,0.00,410.0,WeatherDisplay:10.37,2017-09-20 21:37:00,
2017-09-20 16:42:00,84.5,65.5,29.74,NNW,333,4.5,5.8,53,0.00,CLR,,0.00,367.0,WeatherDisplay:10.37,2017-09-20 21:42:00,
2017-09-20 16:47:00,84.8,65.2,29.75,NW,310,5.9,11.5,52,0.00,CLR,,0.00,376.0,WeatherDisplay:10.37,2017-09-20 21:47:00,
2017-09-20 16:52:00,84.7,65.1,29.75,NW,317,4.5,8.1,52,0.00,CLR,,0.00,392.0,WeatherDisplay:10.37,2017-09-20 21:52:00,
2017-09-20 16:57:00,84.4,63.7,29.75,NNW,327,3.8,10.4,50,0.00,CLR,,0.00,148.0,WeatherDisplay:10.37,2017-09-20 21:57:00,
2017-09-20 17:02:00,83.9,64.4,29.75,NNE,13,0.6,4.6,52,0.00,BKN,,0.00,197.0,WeatherDisplay:10.37,2017-09-20 22:02:00,
2017-09-20 17:07:00,83.7,64.2,29.76,NW,322,1.5,3.5,52,0.00,BKN,,0.00,339.0,WeatherDisplay:10.37,2017-09-20 22:07:00,
2017-09-20 17:12:00,83.7,63.7,29.76,NNW,338,0.3,4.6,51,0.00,BKN,,0.00,158.0,WeatherDisplay:10.37,2017-09-20 22:12:00,
2017-09-20 17:17:00,83.5,63.5,29.76,NW,325,3.4,5.8,51,0.00,BKN,,0.00,130.0,WeatherDisplay:10.37,2017-09-20 22:17:00,
2017-09-20 17:22:00,83.3,63.8,29.76,NNW,338,1.3,3.5,52,0.00,BKN,,0.00,209.0,WeatherDisplay:10.37,2017-09-20 22:22:00,
2017-09-20 17:27:00,83.1,63.1,29.76,NNW,348,4.8,8.1,51,0.00,BKN,,0.00,225.0,WeatherDisplay:10.37,2017-09-20 22:27:00,
2017-09-20 17:32:00,82.8,62.8,29.76,NW,315,3.4,5.8,51,0.00,BKN,,0.00,91.0,WeatherDisplay:10.37,2017-09-20 22:32:00,
2017-09-20 17:37:00,82.5,63.1,29.76,NNW,335,1.5,4.6,52,0.00,BKN,,0.00,149.0,WeatherDisplay:10.37,2017-09-20 22:37:00,
2017-09-20 17:42:00,82.3,62.9,29.76,NW,320,3.3,5.8,52,0.00,BKN,,0.00,104.0,WeatherDisplay:10.37,2017-09-20 22:42:00,
2017-09-20 17:47:00,82.1,62.7,29.77,NW,317,3.5,8.1,52,0.00,BKN,,0.00,135.0,WeatherDisplay:10.37,2017-09-20 22:47:00,
2017-09-20 17:52:00,81.9,63.1,29.77,NNW,338,0.0,1.2,53,0.00,BKN,,0.00,134.0,WeatherDisplay:10.37,2017-09-20 22:52:00,
2017-09-20 17:57:00,81.6,62.8,29.77,NNW,331,0.5,3.5,53,0.00,BKN,,0.00,77.0,WeatherDisplay:10.37,2017-09-20 22:57:00,
2017-09-20 18:02:00,81.4,63.2,29.77,NNW,333,0.5,2.3,54,0.00,BKN,,0.00,53.0,WeatherDisplay:10.37,2017-09-20 23:02:00,
2017-09-20 18:07:00,81.2,63.0,29.77,NW,317,0.9,3.0,54,0.00,BKN,,0.00,54.0,WeatherDisplay:10.37,2017-09-20 23:07:00,
2017-09-20 18:12:00,80.9,62.7,29.78,NNW,345,0.0,2.3,54,0.00,BKN,,0.00,46.0,WeatherDisplay:10.37,2017-09-20 23:12:00,
2017-09-20 18:17:00,80.6,62.9,29.77,North,360,1.1,3.5,55,0.00,BKN,,0.00,51.0,WeatherDisplay:10.37,2017-09-20 23:17:00,
2017-09-20 18:22:00,80.3,62.7,29.77,North,360,0.5,3.5,55,0.00,BKN,,0.00,47.0,WeatherDisplay:10.37,2017-09-20 23:22:00,
2017-09-20 18:27:00,80.1,62.5,29.78,North,360,0.0,0.0,55,0.00,BKN,,0.00,39.0,WeatherDisplay:10.37,2017-09-20 23:27:00,
2017-09-20 18:32:00,79.8,62.7,29.78,NNE,18,0.0,1.2,56,0.00,FEW,,0.00,39.0,WeatherDisplay:10.37,2017-09-20 23:32:00,
2017-09-20 18:37:00,79.5,62.9,29.78,NNE,18,0.0,0.0,57,0.00,FEW,,0.00,30.0,WeatherDisplay:10.37,2017-09-20 23:37:00,
2017-09-20 18:42:00,79.2,62.7,29.77,NNE,17,0.0,0.0,57,0.00,FEW,,0.00,25.0,WeatherDisplay:10.37,2017-09-20 23:42:00,
2017-09-20 18:47:00,78.9,62.4,29.78,North,9,1.4,3.5,57,0.00,CLR,,0.00,19.0,WeatherDisplay:10.37,2017-09-20 23:47:00,
2017-09-20 18:52:00,78.5,62.0,29.78,NNW,344,0.4,0.0,57,0.00,CLR,,0.00,16.0,WeatherDisplay:10.37,2017-09-20 23:52:00,
2017-09-20 18:57:00,78.2,62.2,29.78,North,350,0.7,2.3,58,0.00,CLR,,0.00,11.0,WeatherDisplay:10.37,2017-09-20 23:57:00,
2017-09-20 19:02:00,77.8,62.3,29.78,North,350,0.0,1.2,59,0.00,FEW,,0.00,7.0,WeatherDisplay:10.37,2017-09-21 00:02:00,
2017-09-20 19:07:00,77.5,61.6,29.78,North,355,0.4,2.3,58,0.00,FEW,,0.00,5.0,WeatherDisplay:10.37,2017-09-21 00:07:00,
2017-09-20 19:12:00,77.3,61.9,29.78,North,355,0.0,0.0,59,0.00,FEW,,0.00,0.0,WeatherDisplay:10.37,2017-09-21 00:12:00,
2017-09-20 19:17:00,77.0,62.0,29.78,North,355,0.2,2.3,60,0.00,FEW,,0.00,0.0,WeatherDisplay:10.37,2017-09-21 00:17:00,
2017-09-20 19:22:00,76.7,61.3,29.78,North,360,0.5,2.3,59,0.00,FEW,,0.00,0.0,WeatherDisplay:10.37,2017-09-21 00:22:00,
2017-09-20 19:27:00,76.5,61.6,29.78,North,360,0.2,1.2,60,0.00,FEW,,0.00,0.0,WeatherDisplay:10.37,2017-09-21 00:27:00,
2017-09-20 19:32:00,76.3,61.4,29.78,North,360,0.0,0.0,60,0.00,FEW,,0.00,0.0,WeatherDisplay:10.37,2017-09-21 00:32:00,
2017-09-20 19:37:00,76.1,61.7,29.78,North,360,0.7,3.5,61,0.00,FEW,,0.00,0.0,WeatherDisplay:10.37,2017-09-21 00:37:00,
2017-09-20 19:42:00,75.8,61.4,29.78,North,360,0.0,3.5,61,0.00,FEW,,0.00,0.0,WeatherDisplay:10.37,2017-09-21 00:42:00,
2017-09-20 19:47:00,75.6,61.2,29.78,North,360,0.6,2.3,61,0.00,CLR,,0.00,0.0,WeatherDisplay:10.37,2017-09-21 00:47:00,
2017-09-20 19:52:00,75.5,61.1,29.78,North,355,1.5,3.0,61,0.00,CLR,,0.00,0.0,WeatherDisplay:10.37,2017-09-21 00:52:00,
2017-09-20 19:57:00,75.5,61.1,29.78,NNW,348,1.0,2.3,61,0.00,CLR,,0.00,0.0,WeatherDisplay:10.37,2017-09-21 00:57:00,
2017-09-20 20:02:00,75.5,61.1,29.78,NNW,348,0.2,0.0,61,0.00,CLR,,0.00,0.0,WeatherDisplay:10.37,2017-09-21 01:02:00,
2017-09-20 20:07:00,75.5,61.6,29.79,NNW,348,1.0,1.2,62,0.00,CLR,,0.00,0.0,WeatherDisplay:10.37,2017-09-21 01:07:00,
2017-09-20 20:12:00,75.3,61.4,29.79,NNW,343,0.8,2.3,62,0.00,CLR,,0.00,0.0,WeatherDisplay:10.37,2017-09-21 01:12:00,
2017-09-20 20:17:00,75.1,61.2,29.79,NNW,337,1.3,3.5,62,0.00,CLR,,0.00,0.0,WeatherDisplay:10.37,2017-09-21 01:17:00,
2017-09-20 20:22:00,74.9,61.0,29.79,NNW,340,1.3,3.5,62,0.00,CLR,,0.00,0.0,WeatherDisplay:10.37,2017-09-21 01:22:00,
2017-09-20 20:27:00,74.8,60.9,29.79,NNW,340,0.0,0.0,62,0.00,CLR,,0.00,0.0,WeatherDisplay:10.37,2017-09-21 01:27:00,
2017-09-20 20:32:00,74.6,60.7,29.79,NNW,344,0.0,2.3,62,0.00,SCT,,0.00,0.0,WeatherDisplay:10.37,2017-09-21 01:32:00,
2017-09-20 20:37:00,74.4,60.5,29.79,NNW,344,0.1,3.5,62,0.00,SCT,,0.00,0.0,WeatherDisplay:10.37,2017-09-21 01:37:00,
2017-09-20 20:42:00,74.2,60.8,29.80,NNW,340,0.0,3.5,63,0.00,SCT,,0.00,0.0,WeatherDisplay:10.37,2017-09-21 01:42:00,
2017-09-20 20:47:00,74.0,60.6,29.80,North,355,0.1,1.2,63,0.00,SCT,,0.00,0.0,WeatherDisplay:10.37,2017-09-21 01:47:00,
2017-09-20 20:52:00,73.7,60.3,29.80,North,355,1.5,4.6,63,0.00,SCT,,0.00,0.0,WeatherDisplay:10.37,2017-09-21 01:52:00,
2017-09-20 20:57:00,73.5,60.1,29.80,North,360,1.7,3.5,63,0.00,SCT,,0.00,0.0,WeatherDisplay:10.37,2017-09-21 01:57:00,
2017-09-20 21:02:00,73.3,60.4,29.80,NNW,340,2.2,3.5,64,0.00,BKN,,0.00,0.0,WeatherDisplay:10.37,2017-09-21 02:02:00,
2017-09-20 21:07:00,73.1,60.2,29.80,NNW,343,2.1,3.5,64,0.00,BKN,,0.00,0.0,WeatherDisplay:10.37,2017-09-21 02:07:00,
2017-09-20 21:12:00,73.0,60.1,29.80,NNW,338,0.7,3.5,64,0.00,BKN,,0.00,0.0,WeatherDisplay:10.37,2017-09-21 02:12:00,
2017-09-20 21:17:00,72.8,59.9,29.81,North,5,1.8,3.5,64,0.00,BKN,,0.00,0.0,WeatherDisplay:10.37,2017-09-21 02:17:00,
2017-09-20 21:22:00,72.6,60.2,29.81,North,360,1.8,3.5,65,0.00,BKN,,0.00,0.0,WeatherDisplay:10.37,2017-09-21 02:22:00,
2017-09-20 21:27:00,72.4,60.0,29.81,North,355,3.0,5.0,65,0.00,BKN,,0.00,0.0,WeatherDisplay:10.37,2017-09-21 02:27:00,
2017-09-20 21:32:00,72.2,59.8,29.81,North,355,2.1,5.8,65,0.00,OVC,,0.00,0.0,WeatherDisplay:10.37,2017-09-21 02:32:00,
2017-09-20 21:37:00,72.1,59.7,29.81,North,5,1.3,3.5,65,0.00,OVC,,0.00,0.0,WeatherDisplay:10.37,2017-09-21 02:37:00,
2017-09-20 21:42:00,72.0,60.0,29.81,North,5,2.4,4.0,66,0.00,OVC,,0.00,0.0,WeatherDisplay:10.37,2017-09-21 02:42:00,
2017-09-20 21:47:00,71.9,59.9,29.81,North,11,2.4,3.5,66,0.00,OVC,,0.00,0.0,WeatherDisplay:10.37,2017-09-21 02:47:00,
2017-09-20 21:52:00,71.8,59.8,29.82,NNW,348,2.8,3.5,66,0.00,OVC,,0.00,0.0,WeatherDisplay:10.37,2017-09-21 02:52:00,
2017-09-20 21:57:00,71.6,59.6,29.82,North,11,1.0,2.0,66,0.00,OVC,,0.00,0.0,WeatherDisplay:10.37,2017-09-21 02:57:00,
2017-09-20 22:02:00,71.5,60.0,29.82,North,5,0.8,3.0,67,0.00,BKN,,0.00,0.0,WeatherDisplay:10.37,2017-09-21 03:02:00,
2017-09-20 22:07:00,71.3,59.8,29.83,NNE,13,1.0,2.3,67,0.00,BKN,,0.00,0.0,WeatherDisplay:10.37,2017-09-21 03:07:00,
2017-09-20 22:13:00,71.1,60.0,29.83,North,5,0.0,2.3,68,0.00,BKN,,0.00,0.0,WeatherDisplay:10.37,2017-09-21 03:13:00,